Regional Weather Roundup
Issued by NWS

Home | Current Version | Previous Version | Graphics & Text | Print | Product List | Glossary On
Versions: 1 2 3 4 5 6 7 8 9 10 11 12 13 14 15 16 17 18 19 20 21 22 23 24 25 26 27 28 29 30 31 32 33 34 35 36 37 38 39 40 41 42 43 44 45 46 47 48 49 50
000
ASUS43 KMPX 181410
RWRMN
WEATHER ROUNDUP FOR MINNESOTA
NATIONAL WEATHER SERVICE TWIN CITIES/CHANHASSEN MN
800 AM CST SAT NOV 18 2017


NOTE: "FAIR" INDICATES FEW OR NO CLOUDS BELOW 12,000 FEET WITH NO
SIGNIFICANT WEATHER AND/OR OBSTRUCTIONS TO VISIBILITY. N/A MEANS
CURRENT SKY AND/OR WEATHER CONDITIONS ARE NOT AVAILABLE.

MNZ060>063-068>070-181500-
   Twin Cities Metro

CITY           SKY/WX    TMP DP  RH WIND       PRES   REMARKS
TWIN CITIES    MOCLDY    32  29  88 NW10      29.79R WCI  24
ST PAUL        CLOUDY    32  29  88 NW7       29.80R WCI  26
CRYSTAL        CLOUDY    31  25  78 NW8       29.79R WCI  23
BLAINE         MOCLDY    32  30  93 NW8       29.79R WCI  25
LAKEVILLE      MOCLDY    30  30 100 NW10      29.78R WCI  21
EDEN PRAIRIE   PTCLDY    32  27  81 NW7       29.78R WCI  26
SOUTH ST PAUL  PTCLDY    32  30  92 NW8       29.79R WCI  25
LAKE ELMO      CLOUDY    32  32 100 NW8       29.79R WCI  25
$$
MNZ001>005-007-008-013>017-022>024-027-028-181500-
   Northwest Minnesota

CITY           SKY/WX    TMP DP  RH WIND       PRES   REMARKS
BEMIDJI        PTCLDY    15  12  88 W7        29.85R WCI   5
HALLOCK        PTCLDY    14  10  85 NW10      29.95R WCI   1
ROSEAU         CLOUDY    16  12  86 W10       29.89R WCI   3
WARROAD        CLOUDY    14  10  85 W6        29.88R WCI   5
THIEF RVR FALL CLOUDY    15  10  80 NW14      29.93R WCI   0
CROOKSTON      FLURRIES  18  12  79 NW14      29.96R WCI   4
FOSSTON        PTCLDY    12  10  92 NW10      29.90R WCI  -1
DETROIT LAKES  PTCLDY    19  16  86 NW10      29.90R WCI   8
MOORHEAD       CLOUDY    19  12  73 NW16      29.96R WCI   5
PARK RAPIDS    CLOUDY    20  14  77 NW7       29.84R WCI  11
MAHNOMEN       CLOUDY    16  12  84 NW12      29.91R WCI   3
$$
MNZ006-009>011-018-025>026-181500-
   North Central Minnesota

CITY           SKY/WX    TMP DP  RH WIND       PRES   REMARKS
BAUDETTE       CLOUDY    16  13  88 W7        29.84R WCI   6
FLAG ISLAND    CLOUDY    14  10  85 W10       29.85R WCI   1
INTL FALLS     CLOUDY    17  13  84 W3        29.82R FOG
WASKISH        CLOUDY    18  12  79 NW8       29.85R WCI   7
BIG FORK       CLOUDY    18  14  86 NW3       29.82R
LONGVILLE      CLOUDY    19  16  86 W6        29.84R WCI  11
GRAND RAPIDS   PTCLDY    17  15  92 NW10      29.83R WCI   5
CRANE LAKE     MOCLDY    16  16 100 CALM      29.82R
ORR            CLOUDY    16  12  86 NW7       29.78R WCI   6
COOK           PTCLDY    16  14  93 W8        29.81R WCI   5
WALKER         CLOUDY    17  13  84 W6        29.84S WCI   9
$$
MNZ012-019>021-037-181500-
   Northeast Minnesota

CITY           SKY/WX    TMP DP  RH WIND       PRES   REMARKS
DULUTH         MOCLDY    22  20  92 NW15G24   29.74R WCI   9
ELY            CLOUDY    21  19  93 N6        29.77R WCI  14
HIBBING        CLEAR     15  13  91 NW7       29.80R WCI   5
EVELETH        MOCLDY    18  14  86 NW5       29.80R WCI  11
DULUTH HARBOR  PTCLDY    28  25  86 W12       29.79R WCI  18
TWO HARBORS    PTCLDY    28  23  80 CALM      29.73R
SILVER BAY     CLEAR     27  25  93 NW3       29.72R
GRAND MARAIS     N/A     31  25  78 NW6       29.73R WCI  25
G MARAIS ARPRT CLOUDY    23  19  86 NW3       29.68R
$$
MNZ029>031-032-039>041-046>048-054>057-064-181500-
   West Central Minnesota

CITY           SKY/WX    TMP DP  RH WIND       PRES   REMARKS
FERGUS FALLS   MOCLDY    18  16  93 NW9       29.96R WCI   6
WHEATON        CLOUDY    21  16  79 NW14G21   29.96R WCI   8
MORRIS         CLEAR     19  16  86 NW15      29.90R WCI   5
ALEXANDRIA     CLOUDY    21  17  84 NW10      29.87R WCI  10
ELBOW LAKE     MOCLDY    19  17  89 W13G20    29.91R FOG     WCI   7
WADENA         CLOUDY    19  16  86 NW9       29.87R WCI   9
GLENWOOD       CLEAR     21  18  86 NW12      29.87R WCI   9
APPLETON       CLEAR     21  18  86 NW9       29.92R WCI  11
BENSON         CLEAR     19  16  86 N10       29.91R WCI   8
ORTONVILLE     CLEAR     21  16  79 MISG      29.93R
MADISON        CLEAR     23  19  86 NW8       29.93R WCI  14
WILLMAR        FAIR      23  21  93 NW15      29.88R WCI  10
$$
MNZ033>034-036-042>043-049>051-058-059-181500-
   Central Minnesota

CITY           SKY/WX    TMP DP  RH WIND       PRES   REMARKS
ST CLOUD       CLOUDY    26  22  84 NW9       29.82R WCI  17
SAUK CENTRE    FAIR      22  18  81 NW12      29.86R WCI  11
PAYNESVILLE    CLEAR     25  22  89 NW10G16   29.85R WCI  15
AITKIN         CLEAR     19  16  86 NW5       29.81R WCI  13
PINE RIVER     MOCLDY    18  14  86 NW6       29.88R WCI   9
BRAINERD       CLEAR     22  16  78 NW12      29.84R WCI  10
STAPLES        CLOUDY    19  18  93 NW7       29.85R WCI  10
LONG PRAIRIE   FAIR      21  18  86 W12       29.85R WCI   9
LITTLE FALLS   CLEAR     25  16  68 NW6       29.84R WCI  18
LITCHFIELD     PTCLDY    28  25  86 NW8       29.84R WCI  20
BUFFALO        PTCLDY    29  24  81 NW7       29.82R WCI  22
MAPLE LAKE     PTCLDY    29  26  88 NW10      29.82R WCI  20
HUTCHINSON     CLEAR     30  27  88 NW10      29.83R WCI  21
$$
MNZ037-044-045-052-053-181500-
   East Central Minnesota

CITY           SKY/WX    TMP DP  RH WIND       PRES   REMARKS
PRINCETON      PTCLDY    28  25  86 NW7       29.81R WCI  21
MORA           CLEAR     27  23  86 NW10      29.81R WCI  17
CAMBRIDGE      MOCLDY    30  25  80 NW6       29.80R WCI  24
RUSH CITY      PTCLDY    28  24  86 NW6       29.80R WCI  21
MOOSE LAKE     CLOUDY    25  19  80 NW5       29.77S WCI  19
HINCKLEY       FAIR      28  25  86 NW7       29.79R WCI  21
CLOQUET        PTCLDY    21  18  86 NW12      29.76R WCI   9
MCGREGOR       CLEAR     23  19  86 NW9       29.81R WCI  13
$$
MNZ071>073-080-081-089-090-097-098-181500-
   Southwest Minnesota

CITY           SKY/WX    TMP DP  RH WIND       PRES   REMARKS
MONTEVIDEO     CLEAR     21  18  86 N9        29.91R WCI  11
GRANITE FALLS  CLEAR     24  20  85 W9G18     29.92R WCI  14
CANBY          CLEAR     24  19  83 W12       29.93R WCI  13
MARSHALL       CLOUDY    23  19  85 NW13      29.91R WCI  11
REDWOOD FALLS  CLOUDY    24  17  74 NW12G21   29.86R WCI  13
OLIVIA         CLOUDY    23  21  93 NW13G18   29.86R WCI  11
PIPESTONE      CLEAR     25  21  86 NW10      29.87R WCI  15
WINDOM         CLOUDY    25  12  58 NW14      29.83R WCI  13
WORTHINGTON    CLOUDY    25  19  78 NW12      29.84R WCI  14
JACKSON        CLOUDY    28  21  74 NW13      29.82R WCI  18
SLAYTON        CLOUDY    24  19  80 NW16      29.87R WCI  11
$$
MNZ065>067-074>077-082>085-091>093-181500-
   South Central Minnesota

CITY           SKY/WX    TMP DP  RH WIND       PRES   REMARKS
MANKATO        CLOUDY    30  27  88 NW10      29.81R WCI  21
NEW ULM        PTCLDY    27  21  80 NW10G16   29.83R WCI  17
ST JAMES       MOCLDY    27  23  86 NW15      29.84R WCI  15
FAIRMONT       CLOUDY    28  24  85 NW14      29.82R WCI  17
GLENCOE        MOCLDY    31  31 100 NW9       29.81R WCI  23
FARIBAULT      MOCLDY    34  30  86 NW9       29.79R WCI  26
OWATONNA       CLOUDY    34  32  93 NW12      29.77R FOG     WCI  25
WASECA         CLOUDY    32  30  93 NW13      29.79R FOG     WCI  22
ALBERT LEA     CLOUDY    34  32  93 NW13G18   29.75R FOG     WCI  25
$$
MNZ078>079-086>088-094>096-181500-
   Southeast Minnesota

CITY           SKY/WX    TMP DP  RH WIND       PRES   REMARKS
ROCHESTER      CLOUDY    33  33 100 N17       29.73R FOG     WCI  22
RED WING       CLOUDY    36  30  80 N3        29.76R
STANTON        CLOUDY    35  32  89 NW9       29.77R WCI  27
DODGE CENTER   CLOUDY    34  32  93 NW17G23   29.74R FOG     WCI  23
WINONA         CLOUDY    36  34  93 N8        29.72R
AUSTIN         CLOUDY    34  30  86 N15G24    29.74R FOG     WCI  24
PRESTON        CLOUDY    33  31  94 N14G22    29.71R FOG     WCI  23
$$
ABBREVIATIONS USED IN REMARKS
   TC - TEMPERATURES IN CELSIUS
  WCI - WIND CHILL INDEX
   HX - HEAT INDEX
  VSB - VISIBILITY
$$



USA.gov is the U.S. government's official web portal to all federal, state and local government web resources and services.